Time,TemperatureF,DewpointF,PressureIn,WindDirection,WindDirectionDegrees,WindSpeedMPH,WindSpeedGustMPH,Humidity,HourlyPrecipIn,Conditions,Clouds,dailyrainin,SolarRadiationWatts/m^2,SoftwareType,DateUTC
2013-02-17 00:00:00,24.6,12.7,29.86,East,85,2.0,7.0,60,0.00,,,0.02,0.0,meteohub,2013-02-17 05:00:00,
2013-02-17 00:01:00,24.6,12.7,29.86,East,93,0.0,7.0,60,0.00,,,0.00,0.0,meteohub,2013-02-17 05:01:00,
2013-02-17 00:05:00,24.6,12.7,29.85,East,91,0.0,7.0,60,0.00,,,0.00,0.0,meteohub,2013-02-17 05:05:00,
2013-02-17 00:11:00,24.4,12.9,29.85,ENE,76,6.0,7.0,61,0.00,,,0.00,0.0,meteohub,2013-02-17 05:11:00,
2013-02-17 00:16:00,24.4,12.9,29.85,East,99,5.0,9.0,61,0.00,,,0.00,0.0,meteohub,2013-02-17 05:16:00,
2013-02-17 00:21:00,24.3,12.7,29.85,East,96,2.0,9.0,61,0.00,,,0.00,0.0,meteohub,2013-02-17 05:21:00,
2013-02-17 00:26:00,24.3,12.7,29.84,East,98,1.0,9.0,61,0.00,,,0.00,0.0,meteohub,2013-02-17 05:26:00,
2013-02-17 00:32:00,24.1,12.6,29.84,NNE,30,0.0,9.0,61,0.00,,,0.00,0.0,meteohub,2013-02-17 05:32:00,
2013-02-17 00:37:00,24.1,12.6,29.84,ENE,74,0.0,9.0,61,0.00,,,0.00,0.0,meteohub,2013-02-17 05:37:00,
2013-02-17 00:42:00,24.1,12.9,29.84,ENE,76,2.0,6.0,62,0.00,,,0.00,0.0,meteohub,2013-02-17 05:42:00,
2013-02-17 00:47:00,23.9,12.7,29.84,ENE,69,3.0,5.0,62,0.00,,,0.00,0.0,meteohub,2013-02-17 05:47:00,
2013-02-17 00:52:00,23.7,12.6,29.83,NE,55,3.0,5.0,62,0.00,,,0.00,0.0,meteohub,2013-02-17 05:52:00,
2013-02-17 00:57:00,23.7,12.2,29.83,East,90,1.0,5.0,61,0.00,,,0.00,0.0,meteohub,2013-02-17 05:57:00,
2013-02-17 01:02:00,23.7,12.6,29.83,NE,38,0.0,5.0,62,0.00,,,0.00,0.0,meteohub,2013-02-17 06:02:00,
2013-02-17 01:07:00,23.5,12.0,29.83,ENE,67,0.0,5.0,61,0.00,,,0.00,0.0,meteohub,2013-02-17 06:07:00,
2013-02-17 01:12:00,23.5,12.0,29.83,ENE,78,0.0,5.0,61,0.00,,,0.00,0.0,meteohub,2013-02-17 06:12:00,
2013-02-17 01:17:00,23.5,12.0,29.82,East,98,0.0,5.0,61,0.00,,,0.00,0.0,meteohub,2013-02-17 06:17:00,
2013-02-17 01:22:00,23.5,12.4,29.82,North,9,0.0,5.0,62,0.00,,,0.00,0.0,meteohub,2013-02-17 06:22:00,
2013-02-17 01:27:00,23.5,12.4,29.82,ENE,58,0.0,4.0,62,0.00,,,0.00,0.0,meteohub,2013-02-17 06:27:00,
2013-02-17 01:33:00,23.5,12.0,29.82,ENE,71,0.0,4.0,61,0.00,,,0.00,0.0,meteohub,2013-02-17 06:33:00,
2013-02-17 01:38:00,23.5,12.0,29.82,East,90,0.0,5.0,61,0.00,,,0.00,0.0,meteohub,2013-02-17 06:38:00,
2013-02-17 01:43:00,23.4,11.8,29.82,East,95,0.0,5.0,61,0.00,,,0.00,0.0,meteohub,2013-02-17 06:43:00,
2013-02-17 01:48:00,23.4,11.8,29.81,East,90,2.0,4.0,61,0.00,,,0.00,0.0,meteohub,2013-02-17 06:48:00,
2013-02-17 01:54:00,23.4,11.8,29.81,NW,321,0.0,6.0,61,0.00,,,0.00,0.0,meteohub,2013-02-17 06:54:00,
2013-02-17 01:59:00,23.4,11.1,29.81,ENE,78,0.0,10.0,59,0.00,,,0.00,0.0,meteohub,2013-02-17 06:59:00,
2013-02-17 02:04:00,23.4,11.1,29.81,ENE,78,1.0,10.0,59,0.00,,,0.00,0.0,meteohub,2013-02-17 07:04:00,
2013-02-17 02:09:00,23.4,10.8,29.81,East,83,0.0,10.0,58,0.00,,,0.00,0.0,meteohub,2013-02-17 07:09:00,
2013-02-17 02:15:00,23.4,10.8,29.81,East,86,2.0,5.0,58,0.00,,,0.00,0.0,meteohub,2013-02-17 07:15:00,
2013-02-17 02:20:00,23.2,9.9,29.81,East,96,0.0,6.0,56,0.00,,,0.00,0.0,meteohub,2013-02-17 07:20:00,
2013-02-17 02:26:00,23.2,10.2,29.80,NNE,31,3.0,8.0,57,0.00,,,0.00,0.0,meteohub,2013-02-17 07:26:00,
2013-02-17 02:31:00,23.2,10.2,29.79,North,5,0.0,8.0,57,0.00,,,0.00,0.0,meteohub,2013-02-17 07:31:00,
2013-02-17 02:36:00,23.2,10.6,29.80,East,80,0.0,8.0,58,0.00,,,0.00,0.0,meteohub,2013-02-17 07:36:00,
2013-02-17 02:42:00,23.2,10.6,29.80,East,80,0.0,8.0,58,0.00,,,0.00,0.0,meteohub,2013-02-17 07:42:00,
2013-02-17 02:47:00,23.2,10.2,29.80,West,263,0.0,4.0,57,0.00,,,0.00,0.0,meteohub,2013-02-17 07:47:00,
2013-02-17 02:52:00,23.0,10.4,29.80,West,263,0.0,4.0,58,0.00,,,0.00,0.0,meteohub,2013-02-17 07:52:00,
2013-02-17 02:57:00,23.2,10.9,29.80,WSW,254,0.0,2.0,59,0.00,,,0.00,0.0,meteohub,2013-02-17 07:57:00,
2013-02-17 03:02:00,23.0,11.1,29.80,NNW,339,0.0,3.0,60,0.00,,,0.00,0.0,meteohub,2013-02-17 08:02:00,
2013-02-17 03:07:00,23.0,11.1,29.80,NE,52,0.0,3.0,60,0.00,,,0.00,0.0,meteohub,2013-02-17 08:07:00,
2013-02-17 03:12:00,23.0,10.8,29.80,NE,55,0.0,3.0,59,0.00,,,0.00,0.0,meteohub,2013-02-17 08:12:00,
2013-02-17 03:17:00,22.8,10.6,29.80,North,9,0.0,7.0,59,0.00,,,0.00,0.0,meteohub,2013-02-17 08:17:00,
2013-02-17 03:22:00,22.8,10.6,29.80,ENE,57,0.0,7.0,59,0.00,,,0.00,0.0,meteohub,2013-02-17 08:22:00,
2013-02-17 03:27:00,22.8,10.6,29.80,NE,40,3.0,7.0,59,0.00,,,0.00,0.0,meteohub,2013-02-17 08:27:00,
2013-02-17 03:32:00,22.8,10.2,29.80,NW,325,0.0,7.0,58,0.00,,,0.00,0.0,meteohub,2013-02-17 08:32:00,
2013-02-17 03:37:00,22.8,10.6,29.80,WNW,283,0.0,5.0,59,0.00,,,0.00,0.0,meteohub,2013-02-17 08:37:00,
2013-02-17 03:42:00,22.8,10.2,29.80,WNW,302,0.0,5.0,58,0.00,,,0.00,0.0,meteohub,2013-02-17 08:42:00,
2013-02-17 03:47:00,22.6,9.7,29.79,North,0,0.0,5.0,57,0.00,,,0.00,0.0,meteohub,2013-02-17 08:47:00,
2013-02-17 03:52:00,22.6,10.0,29.79,NNE,30,0.0,5.0,58,0.00,,,0.00,0.0,meteohub,2013-02-17 08:52:00,
2013-02-17 03:57:00,22.6,9.7,29.78,NNE,28,2.0,7.0,57,0.00,,,0.00,0.0,meteohub,2013-02-17 08:57:00,
2013-02-17 04:02:00,22.6,9.7,29.78,North,0,0.0,7.0,57,0.00,,,0.00,0.0,meteohub,2013-02-17 09:02:00,
2013-02-17 04:07:00,22.5,9.1,29.78,NE,42,3.0,7.0,56,0.00,,,0.00,0.0,meteohub,2013-02-17 09:07:00,
2013-02-17 04:12:00,22.5,9.1,29.78,ENE,61,0.0,7.0,56,0.00,,,0.00,0.0,meteohub,2013-02-17 09:12:00,
2013-02-17 04:17:00,22.5,9.5,29.78,ENE,57,0.0,7.0,57,0.00,,,0.00,0.0,meteohub,2013-02-17 09:17:00,
2013-02-17 04:22:00,22.5,9.5,29.77,North,350,3.0,7.0,57,0.00,,,0.00,0.0,meteohub,2013-02-17 09:22:00,
2013-02-17 04:27:00,22.3,9.0,29.76,North,5,2.0,6.0,56,0.00,,,0.00,0.0,meteohub,2013-02-17 09:27:00,
2013-02-17 04:32:00,22.3,9.0,29.76,ENE,66,2.0,6.0,56,0.00,,,0.00,0.0,meteohub,2013-02-17 09:32:00,
2013-02-17 04:37:00,22.3,8.6,29.78,East,89,0.0,6.0,55,0.00,,,0.00,0.0,meteohub,2013-02-17 09:37:00,
2013-02-17 04:43:00,22.1,8.4,29.78,East,83,0.0,6.0,55,0.00,,,0.00,0.0,meteohub,2013-02-17 09:43:00,
2013-02-17 04:48:00,22.1,8.1,29.78,ENE,78,0.0,9.0,54,0.00,,,0.00,0.0,meteohub,2013-02-17 09:48:00,
2013-02-17 04:53:00,21.9,8.2,29.78,NNE,17,2.0,9.0,55,0.00,,,0.00,0.0,meteohub,2013-02-17 09:53:00,
2013-02-17 04:59:00,21.9,8.2,29.78,ENE,61,0.0,9.0,55,0.00,,,0.00,0.0,meteohub,2013-02-17 09:59:00,
2013-02-17 05:04:00,21.7,7.7,29.78,NNE,12,0.0,9.0,54,0.00,,,0.00,0.0,meteohub,2013-02-17 10:04:00,
2013-02-17 05:09:00,21.7,7.7,29.77,ESE,106,1.0,6.0,54,0.00,,,0.00,0.0,meteohub,2013-02-17 10:09:00,
2013-02-17 05:15:00,21.7,7.7,29.77,East,93,0.0,6.0,54,0.00,,,0.00,0.0,meteohub,2013-02-17 10:15:00,
2013-02-17 05:20:00,21.7,8.1,29.78,NE,46,2.0,6.0,55,0.00,,,0.00,0.0,meteohub,2013-02-17 10:20:00,
2013-02-17 05:25:00,21.7,8.4,29.78,ENE,65,2.0,10.0,56,0.00,,,0.00,0.0,meteohub,2013-02-17 10:25:00,
2013-02-17 05:30:00,21.6,9.1,29.78,East,91,0.0,10.0,58,0.00,,,0.00,0.0,meteohub,2013-02-17 10:30:00,
2013-02-17 05:36:00,21.6,9.9,29.78,ENE,74,1.0,6.0,60,0.00,,,0.00,0.0,meteohub,2013-02-17 10:36:00,
2013-02-17 05:41:00,21.6,10.2,29.78,ENE,74,0.0,6.0,61,0.00,,,0.00,0.0,meteohub,2013-02-17 10:41:00,
2013-02-17 05:46:00,21.4,10.4,29.78,East,97,0.0,6.0,62,0.00,,,0.00,0.0,meteohub,2013-02-17 10:46:00,
2013-02-17 05:52:00,21.2,10.2,29.78,ENE,71,0.0,5.0,62,0.00,,,0.00,0.0,meteohub,2013-02-17 10:52:00,
2013-02-17 05:57:00,21.0,10.4,29.78,NE,42,2.0,5.0,63,0.00,,,0.00,0.0,meteohub,2013-02-17 10:57:00,
2013-02-17 06:02:00,20.8,10.2,29.77,ESE,121,2.0,5.0,63,0.00,,,0.00,0.0,meteohub,2013-02-17 11:02:00,
2013-02-17 06:07:00,20.8,10.2,29.76,ENE,75,1.0,5.0,63,0.00,,,0.00,0.0,meteohub,2013-02-17 11:07:00,
2013-02-17 06:12:00,20.7,10.0,29.76,North,9,1.0,5.0,63,0.00,,,0.00,0.0,meteohub,2013-02-17 11:12:00,
2013-02-17 06:17:00,20.7,10.0,29.76,East,91,0.0,7.0,63,0.00,,,0.00,0.0,meteohub,2013-02-17 11:17:00,
2013-02-17 06:22:00,20.5,10.2,29.77,East,88,3.0,7.0,64,0.00,,,0.00,0.0,meteohub,2013-02-17 11:22:00,
2013-02-17 06:27:00,20.5,10.2,29.76,East,86,1.0,7.0,64,0.00,,,0.00,0.0,meteohub,2013-02-17 11:27:00,
2013-02-17 06:32:00,20.3,10.4,29.76,ENE,66,0.0,5.0,65,0.00,,,0.00,0.0,meteohub,2013-02-17 11:32:00,
2013-02-17 06:37:00,20.1,10.2,29.75,East,88,2.0,5.0,65,0.00,,,0.00,0.0,meteohub,2013-02-17 11:37:00,
2013-02-17 06:42:00,20.1,10.2,29.75,NE,40,2.0,5.0,65,0.00,,,0.00,0.0,meteohub,2013-02-17 11:42:00,
2013-02-17 06:47:00,20.1,10.2,29.75,NNW,334,1.0,5.0,65,0.00,,,0.00,0.0,meteohub,2013-02-17 11:47:00,
2013-02-17 06:52:00,19.9,10.0,29.75,North,5,3.0,7.0,65,0.00,,,0.00,0.0,meteohub,2013-02-17 11:52:00,
2013-02-17 06:57:00,19.9,10.0,29.74,NNW,344,0.0,7.0,65,0.00,,,0.00,0.0,meteohub,2013-02-17 11:57:00,
2013-02-17 07:02:00,19.8,9.9,29.75,ESE,118,3.0,6.0,65,0.00,,,0.00,0.0,meteohub,2013-02-17 12:02:00,
2013-02-17 07:07:00,19.8,9.5,29.75,NNE,20,0.0,6.0,64,0.00,,,0.00,9.0,meteohub,2013-02-17 12:07:00,
2013-02-17 07:12:00,19.8,9.5,29.75,NNW,336,0.0,6.0,64,0.00,,,0.00,14.0,meteohub,2013-02-17 12:12:00,
2013-02-17 07:17:00,19.8,9.5,29.75,NNE,22,2.0,5.0,64,0.00,,,0.00,21.0,meteohub,2013-02-17 12:17:00,
2013-02-17 07:22:00,19.6,9.3,29.75,North,350,2.0,5.0,64,0.00,,,0.00,25.0,meteohub,2013-02-17 12:22:00,
2013-02-17 07:27:00,19.6,9.3,29.75,NNW,336,0.0,5.0,64,0.00,,,0.00,25.0,meteohub,2013-02-17 12:27:00,
2013-02-17 07:32:00,19.6,9.3,29.75,East,90,3.0,4.0,64,0.00,,,0.00,26.0,meteohub,2013-02-17 12:32:00,
2013-02-17 07:37:00,19.8,9.9,29.75,NNE,14,1.0,4.0,65,0.00,,,0.00,35.0,meteohub,2013-02-17 12:37:00,
2013-02-17 07:42:00,19.8,9.9,29.75,NNE,15,0.0,4.0,65,0.00,,,0.00,40.0,meteohub,2013-02-17 12:42:00,
2013-02-17 07:47:00,19.8,9.9,29.75,ENE,57,0.0,4.0,65,0.00,,,0.00,47.0,meteohub,2013-02-17 12:47:00,
2013-02-17 07:52:00,19.8,9.9,29.75,NNE,15,6.0,6.0,65,0.00,,,0.00,53.0,meteohub,2013-02-17 12:52:00,
2013-02-17 07:57:00,19.9,8.6,29.75,NNE,24,3.0,6.0,61,0.00,,,0.00,56.0,meteohub,2013-02-17 12:57:00,
2013-02-17 08:02:00,20.1,8.1,29.75,NW,319,0.0,9.0,59,0.00,,,0.00,60.0,meteohub,2013-02-17 13:02:00,
2013-02-17 08:07:00,20.1,7.7,29.74,SE,136,1.0,9.0,58,0.00,,,0.00,63.0,meteohub,2013-02-17 13:07:00,
2013-02-17 08:12:00,20.3,7.5,29.74,North,0,0.0,9.0,57,0.00,,,0.00,70.0,meteohub,2013-02-17 13:12:00,
2013-02-17 08:17:00,20.3,7.2,29.74,NNW,335,0.0,10.0,56,0.00,,,0.00,74.0,meteohub,2013-02-17 13:17:00,
2013-02-17 08:22:00,20.5,7.7,29.74,WSW,253,1.0,10.0,57,0.00,,,0.00,86.0,meteohub,2013-02-17 13:22:00,
2013-02-17 08:27:00,20.5,7.3,29.74,West,263,4.0,10.0,56,0.00,,,0.00,90.0,meteohub,2013-02-17 13:27:00,
2013-02-17 08:32:00,20.5,7.3,29.74,WNW,300,12.0,12.0,56,0.00,,,0.00,95.0,meteohub,2013-02-17 13:32:00,
2013-02-17 08:37:00,20.5,6.4,29.74,SE,126,3.0,11.0,54,0.00,,,0.00,100.0,meteohub,2013-02-17 13:37:00,
2013-02-17 08:43:00,20.7,7.0,29.73,West,263,3.0,12.0,55,0.00,,,0.00,107.0,meteohub,2013-02-17 13:43:00,
2013-02-17 08:48:00,20.7,6.3,29.73,NW,320,2.0,12.0,53,0.00,,,0.00,116.0,meteohub,2013-02-17 13:48:00,
2013-02-17 08:53:00,20.7,6.6,29.73,NNW,330,6.0,9.0,54,0.00,,,0.00,123.0,meteohub,2013-02-17 13:53:00,
2013-02-17 08:59:00,20.7,5.9,29.74,WNW,298,6.0,9.0,52,0.00,,,0.00,132.0,meteohub,2013-02-17 13:59:00,
2013-02-17 09:04:00,20.7,5.9,29.73,NNW,329,5.0,13.0,52,0.00,,,0.00,137.0,meteohub,2013-02-17 14:04:00,
2013-02-17 09:09:00,20.7,5.4,29.73,WNW,291,0.0,13.0,51,0.00,,,0.00,146.0,meteohub,2013-02-17 14:09:00,
2013-02-17 09:15:00,20.8,5.9,29.73,WNW,292,1.0,13.0,52,0.00,,,0.00,158.0,meteohub,2013-02-17 14:15:00,
2013-02-17 09:20:00,20.8,5.5,29.73,South,188,5.0,13.0,51,0.00,,,0.00,165.0,meteohub,2013-02-17 14:20:00,
2013-02-17 09:25:00,20.8,5.5,29.73,WNW,290,6.0,13.0,51,0.00,,,0.00,171.0,meteohub,2013-02-17 14:25:00,
2013-02-17 09:31:00,20.8,5.2,29.73,North,5,7.0,14.0,50,0.00,,,0.00,176.0,meteohub,2013-02-17 14:31:00,
2013-02-17 09:36:00,21.0,5.4,29.73,WNW,299,7.0,14.0,50,0.00,,,0.00,181.0,meteohub,2013-02-17 14:36:00,
2013-02-17 09:41:00,21.0,5.4,29.73,NNW,347,2.0,17.0,50,0.00,,,0.00,188.0,meteohub,2013-02-17 14:41:00,
2013-02-17 09:47:00,21.0,4.8,29.73,WNW,296,0.0,17.0,49,0.00,,,0.00,204.0,meteohub,2013-02-17 14:47:00,
2013-02-17 09:52:00,21.2,5.9,29.73,SE,146,3.0,17.0,51,0.00,,,0.00,209.0,meteohub,2013-02-17 14:52:00,
2013-02-17 09:57:00,21.4,5.2,29.73,NE,55,2.0,12.0,49,0.00,,,0.00,211.0,meteohub,2013-02-17 14:57:00,
2013-02-17 10:02:00,21.6,5.7,29.73,WNW,303,6.0,13.0,50,0.00,,,0.00,236.0,meteohub,2013-02-17 15:02:00,
2013-02-17 10:08:00,21.6,5.4,29.72,NNW,327,5.0,13.0,49,0.00,,,0.00,260.0,meteohub,2013-02-17 15:08:00,
2013-02-17 10:13:00,21.7,5.9,29.72,NW,311,5.0,13.0,50,0.00,,,0.00,250.0,meteohub,2013-02-17 15:13:00,
2013-02-17 10:18:00,21.7,6.8,29.72,NW,323,6.0,17.0,52,0.00,,,0.00,257.0,meteohub,2013-02-17 15:18:00,
2013-02-17 10:23:00,21.4,7.0,29.72,WNW,292,2.0,17.0,53,0.00,,,0.00,260.0,meteohub,2013-02-17 15:23:00,
2013-02-17 10:29:00,21.2,7.2,29.71,WNW,294,4.0,17.0,54,0.00,,,0.00,258.0,meteohub,2013-02-17 15:29:00,
2013-02-17 10:34:00,21.0,7.0,29.71,NNW,339,2.0,17.0,54,0.00,,,0.00,295.0,meteohub,2013-02-17 15:34:00,
2013-02-17 10:40:00,21.2,7.2,29.71,WNW,294,4.0,16.0,54,0.00,,,0.00,345.0,meteohub,2013-02-17 15:40:00,
2013-02-17 10:45:00,21.2,7.2,29.71,WNW,302,11.0,16.0,54,0.00,,,0.00,357.0,meteohub,2013-02-17 15:45:00,
2013-02-17 10:51:00,21.4,7.0,29.70,West,275,7.0,16.0,53,0.00,,,0.00,359.0,meteohub,2013-02-17 15:51:00,
2013-02-17 10:56:00,21.6,7.5,29.70,NNW,327,4.0,19.0,54,0.00,,,0.00,359.0,meteohub,2013-02-17 15:56:00,
2013-02-17 11:01:00,21.9,7.9,29.70,West,279,5.0,19.0,54,0.00,,,0.00,388.0,meteohub,2013-02-17 16:01:00,
2013-02-17 11:06:00,22.1,7.5,29.70,NW,317,14.0,19.0,53,0.00,,,0.00,508.0,meteohub,2013-02-17 16:06:00,
2013-02-17 11:12:00,22.6,8.4,29.71,WNW,296,0.0,19.0,54,0.00,,,0.00,545.0,meteohub,2013-02-17 16:12:00,
2013-02-17 11:17:00,23.4,8.8,29.70,WNW,298,1.0,18.0,53,0.00,,,0.00,591.0,meteohub,2013-02-17 16:17:00,
2013-02-17 11:22:00,24.1,9.5,29.70,North,355,3.0,18.0,53,0.00,,,0.00,475.0,meteohub,2013-02-17 16:22:00,
2013-02-17 11:27:00,24.1,7.7,29.70,NW,318,3.0,18.0,49,0.00,,,0.00,383.0,meteohub,2013-02-17 16:27:00,
2013-02-17 11:32:00,23.7,7.9,29.70,NNW,328,6.0,16.0,50,0.00,,,0.00,327.0,meteohub,2013-02-17 16:32:00,
2013-02-17 11:37:00,23.5,7.7,29.70,NE,40,7.0,16.0,50,0.00,,,0.00,446.0,meteohub,2013-02-17 16:37:00,
2013-02-17 11:42:00,23.9,7.9,29.70,WSW,250,6.0,17.0,50,0.00,,,0.00,325.0,meteohub,2013-02-17 16:42:00,
2013-02-17 11:47:00,24.3,8.8,29.70,WNW,290,15.0,17.0,51,0.00,,,0.00,287.0,meteohub,2013-02-17 16:47:00,
2013-02-17 11:52:00,24.1,7.7,29.70,NW,308,10.0,17.0,49,0.00,,,0.00,359.0,meteohub,2013-02-17 16:52:00,
2013-02-17 11:57:00,24.1,7.7,29.70,WNW,296,10.0,17.0,49,0.00,,,0.00,422.0,meteohub,2013-02-17 16:57:00,
2013-02-17 12:02:00,24.3,8.2,29.70,West,262,7.0,17.0,50,0.00,,,0.00,283.0,meteohub,2013-02-17 17:02:00,
2013-02-17 12:07:00,24.4,9.0,29.70,SSW,211,3.0,19.0,51,0.00,,,0.00,295.0,meteohub,2013-02-17 17:07:00,
2013-02-17 12:12:00,24.4,8.1,29.70,West,265,6.0,19.0,49,0.00,,,0.00,318.0,meteohub,2013-02-17 17:12:00,
2013-02-17 12:17:00,24.3,7.9,29.70,NW,321,2.0,19.0,49,0.00,,,0.00,396.0,meteohub,2013-02-17 17:17:00,
2013-02-17 12:22:00,24.1,7.2,29.70,NNW,342,5.0,19.0,48,0.00,,,0.00,338.0,meteohub,2013-02-17 17:22:00,
2013-02-17 12:27:00,24.1,7.7,29.70,SSW,212,5.0,19.0,49,0.00,,,0.00,443.0,meteohub,2013-02-17 17:27:00,
2013-02-17 12:32:00,24.1,7.7,29.69,NNW,329,7.0,19.0,49,0.00,,,0.00,244.0,meteohub,2013-02-17 17:32:00,
2013-02-17 12:37:00,23.9,7.0,29.70,West,265,9.0,19.0,48,0.00,,,0.00,272.0,meteohub,2013-02-17 17:37:00,
2013-02-17 12:42:00,24.1,7.2,29.70,WNW,300,4.0,20.0,48,0.00,,,0.00,288.0,meteohub,2013-02-17 17:42:00,
2013-02-17 12:47:00,24.3,7.3,29.69,North,355,13.0,20.0,48,0.00,,,0.00,276.0,meteohub,2013-02-17 17:47:00,
2013-02-17 12:53:00,24.4,7.5,29.69,NW,305,5.0,20.0,48,0.00,,,0.00,193.0,meteohub,2013-02-17 17:53:00,
2013-02-17 12:58:00,24.8,7.9,29.69,WNW,295,10.0,22.0,48,0.00,,,0.00,339.0,meteohub,2013-02-17 17:58:00,
2013-02-17 13:03:00,25.0,8.1,29.68,West,279,6.0,22.0,48,0.00,,,0.00,297.0,meteohub,2013-02-17 18:03:00,
2013-02-17 13:08:00,25.0,7.2,29.68,WNW,301,4.0,18.0,46,0.00,,,0.00,346.0,meteohub,2013-02-17 18:08:00,
2013-02-17 13:13:00,24.8,7.0,29.68,North,349,0.0,30.0,46,0.00,,,0.00,350.0,meteohub,2013-02-17 18:13:00,
2013-02-17 13:19:00,24.6,6.8,29.68,NW,313,13.0,30.0,46,0.00,,,0.00,348.0,meteohub,2013-02-17 18:19:00,
2013-02-17 13:24:00,24.6,6.8,29.68,NW,320,4.0,23.0,46,0.00,,,0.00,364.0,meteohub,2013-02-17 18:24:00,
2013-02-17 13:29:00,24.8,6.4,29.68,East,90,4.0,23.0,45,0.00,,,0.00,348.0,meteohub,2013-02-17 18:29:00,
2013-02-17 13:35:00,25.0,6.6,29.68,West,267,5.0,21.0,45,0.00,,,0.00,353.0,meteohub,2013-02-17 18:35:00,
2013-02-17 13:40:00,25.0,7.5,29.68,NW,316,12.0,21.0,47,0.00,,,0.00,360.0,meteohub,2013-02-17 18:40:00,
2013-02-17 13:45:00,25.0,7.2,29.68,NNW,329,7.0,22.0,46,0.00,,,0.00,374.0,meteohub,2013-02-17 18:45:00,
2013-02-17 13:51:00,25.2,6.3,29.68,WNW,284,11.0,22.0,44,0.00,,,0.00,399.0,meteohub,2013-02-17 18:51:00,
2013-02-17 13:56:00,25.2,6.8,29.68,WNW,294,7.0,21.0,45,0.00,,,0.00,385.0,meteohub,2013-02-17 18:56:00,
2013-02-17 14:01:00,25.2,6.3,29.69,WSW,247,3.0,21.0,44,0.00,,,0.00,388.0,meteohub,2013-02-17 19:01:00,
2013-02-17 14:06:00,25.3,6.4,29.68,NW,312,7.0,24.0,44,0.00,,,0.00,325.0,meteohub,2013-02-17 19:06:00,
2013-02-17 14:11:00,25.2,5.4,29.69,West,267,4.0,24.0,42,0.00,,,0.00,350.0,meteohub,2013-02-17 19:11:00,
2013-02-17 14:16:00,25.0,5.2,29.68,WNW,303,11.0,24.0,42,0.00,,,0.00,350.0,meteohub,2013-02-17 19:16:00,
2013-02-17 14:21:00,24.6,5.4,29.69,WNW,282,9.0,24.0,43,0.00,,,0.00,315.0,meteohub,2013-02-17 19:21:00,
2013-02-17 14:27:00,24.6,5.4,29.69,NW,317,15.0,24.0,43,0.00,,,0.00,302.0,meteohub,2013-02-17 19:27:00,
2013-02-17 14:32:00,24.4,5.2,29.69,NW,317,12.0,24.0,43,0.00,,,0.00,334.0,meteohub,2013-02-17 19:32:00,
2013-02-17 14:37:00,24.4,4.1,29.69,West,263,3.0,24.0,41,0.00,,,0.00,339.0,meteohub,2013-02-17 19:37:00,
2013-02-17 14:42:00,24.4,4.1,29.70,NW,315,13.0,24.0,41,0.00,,,0.00,265.0,meteohub,2013-02-17 19:42:00,
2013-02-17 14:48:00,24.3,3.4,29.70,WNW,301,13.0,27.0,40,0.00,,,0.00,292.0,meteohub,2013-02-17 19:48:00,
2013-02-17 14:53:00,24.3,4.5,29.70,NW,321,13.0,27.0,42,0.00,,,0.00,241.0,meteohub,2013-02-17 19:53:00,
2013-02-17 14:58:00,24.3,4.5,29.71,WNW,289,4.0,27.0,42,0.00,,,0.00,230.0,meteohub,2013-02-17 19:58:00,
2013-02-17 15:04:00,24.3,5.0,29.70,WNW,303,10.0,27.0,43,0.00,,,0.00,251.0,meteohub,2013-02-17 20:04:00,
2013-02-17 15:09:00,24.3,3.9,29.71,WNW,303,6.0,22.0,41,0.00,,,0.00,257.0,meteohub,2013-02-17 20:09:00,
2013-02-17 15:14:00,24.3,3.4,29.71,NW,313,3.0,23.0,40,0.00,,,0.00,246.0,meteohub,2013-02-17 20:14:00,
2013-02-17 15:20:00,24.1,4.3,29.72,NNW,336,12.0,23.0,42,0.00,,,0.00,218.0,meteohub,2013-02-17 20:20:00,
2013-02-17 15:25:00,24.1,3.7,29.71,North,0,7.0,24.0,41,0.00,,,0.00,200.0,meteohub,2013-02-17 20:25:00,
2013-02-17 15:30:00,23.7,3.4,29.72,NW,313,11.0,24.0,41,0.00,,,0.00,174.0,meteohub,2013-02-17 20:30:00,
2013-02-17 15:36:00,23.7,4.5,29.72,WNW,300,4.0,24.0,43,0.00,,,0.00,179.0,meteohub,2013-02-17 20:36:00,
2013-02-17 15:41:00,23.7,3.9,29.72,WNW,288,15.0,24.0,42,0.00,,,0.00,144.0,meteohub,2013-02-17 20:41:00,
2013-02-17 15:46:00,23.5,3.7,29.72,NW,314,6.0,27.0,42,0.00,,,0.00,130.0,meteohub,2013-02-17 20:46:00,
2013-02-17 15:52:00,23.4,4.1,29.72,NNE,23,14.0,27.0,43,0.00,,,0.00,111.0,meteohub,2013-02-17 20:52:00,
2013-02-17 15:57:00,23.2,3.9,29.72,NNW,327,7.0,31.0,43,0.00,,,0.00,104.0,meteohub,2013-02-17 20:57:00,
2013-02-17 16:02:00,22.8,3.7,29.73,WNW,301,3.0,31.0,43,0.00,,,0.00,91.0,meteohub,2013-02-17 21:02:00,
2013-02-17 16:07:00,22.6,4.5,29.73,NW,313,9.0,26.0,45,0.00,,,0.00,88.0,meteohub,2013-02-17 21:07:00,
2013-02-17 16:12:00,22.5,5.4,29.73,WNW,294,2.0,26.0,47,0.00,,,0.00,86.0,meteohub,2013-02-17 21:12:00,
2013-02-17 16:17:00,22.1,5.4,29.73,West,281,10.0,26.0,48,0.00,,,0.00,79.0,meteohub,2013-02-17 21:17:00,
2013-02-17 16:22:00,21.7,5.5,29.73,West,273,9.0,26.0,49,0.00,,,0.00,70.0,meteohub,2013-02-17 21:22:00,
2013-02-17 16:27:00,21.6,5.7,29.73,NW,314,8.0,23.0,50,0.00,,,0.00,62.0,meteohub,2013-02-17 21:27:00,
2013-02-17 16:32:00,21.2,5.9,29.74,WNW,298,14.0,23.0,51,0.00,,,0.00,54.0,meteohub,2013-02-17 21:32:00,
2013-02-17 16:37:00,21.0,6.1,29.75,WNW,286,5.0,24.0,52,0.00,,,0.00,47.0,meteohub,2013-02-17 21:37:00,
2013-02-17 16:42:00,20.8,5.9,29.75,NW,308,6.0,24.0,52,0.00,,,0.00,40.0,meteohub,2013-02-17 21:42:00,
2013-02-17 16:47:00,20.5,5.7,29.75,NW,312,4.0,18.0,52,0.00,,,0.00,33.0,meteohub,2013-02-17 21:47:00,
2013-02-17 16:52:00,20.1,5.7,29.75,WNW,292,2.0,18.0,53,0.00,,,0.00,26.0,meteohub,2013-02-17 21:52:00,
2013-02-17 16:57:00,19.9,5.9,29.75,NW,317,10.0,19.0,54,0.00,,,0.00,23.0,meteohub,2013-02-17 21:57:00,
2013-02-17 17:02:00,19.8,5.7,29.77,NNW,329,9.0,19.0,54,0.00,,,0.00,21.0,meteohub,2013-02-17 22:02:00,
2013-02-17 17:07:00,19.6,6.1,29.77,WNW,286,11.0,21.0,55,0.00,,,0.00,19.0,meteohub,2013-02-17 22:07:00,
2013-02-17 17:12:00,19.2,5.7,29.77,West,278,7.0,21.0,55,0.00,,,0.00,16.0,meteohub,2013-02-17 22:12:00,
2013-02-17 17:17:00,18.9,5.4,29.77,North,9,5.0,21.0,55,0.00,,,0.00,11.0,meteohub,2013-02-17 22:17:00,
2013-02-17 17:22:00,18.7,5.5,29.78,West,279,19.0,21.0,56,0.00,,,0.00,7.0,meteohub,2013-02-17 22:22:00,
2013-02-17 17:27:00,18.3,5.2,29.79,NNE,21,8.0,23.0,56,0.00,,,0.00,5.0,meteohub,2013-02-17 22:27:00,
2013-02-17 17:32:00,18.1,5.0,29.79,NNW,330,5.0,23.0,56,0.00,,,0.00,0.0,meteohub,2013-02-17 22:32:00,
2013-02-17 17:37:00,18.0,5.0,29.79,West,259,2.0,22.0,56,0.00,,,0.00,0.0,meteohub,2013-02-17 22:37:00,
2013-02-17 17:42:00,17.8,5.2,29.80,NW,313,11.0,22.0,57,0.00,,,0.00,0.0,meteohub,2013-02-17 22:42:00,
2013-02-17 17:47:00,17.6,5.0,29.80,SSE,162,7.0,20.0,57,0.00,,,0.00,0.0,meteohub,2013-02-17 22:47:00,
2013-02-17 17:52:00,17.4,4.8,29.81,WNW,298,15.0,20.0,57,0.00,,,0.00,0.0,meteohub,2013-02-17 22:52:00,
2013-02-17 17:57:00,17.4,4.8,29.81,WNW,287,12.0,20.0,57,0.00,,,0.00,0.0,meteohub,2013-02-17 22:57:00,
2013-02-17 18:03:00,17.2,5.0,29.82,WSW,252,13.0,20.0,58,0.00,,,0.00,0.0,meteohub,2013-02-17 23:03:00,
2013-02-17 18:08:00,17.2,5.0,29.82,WNW,297,4.0,24.0,58,0.00,,,0.00,0.0,meteohub,2013-02-17 23:08:00,
2013-02-17 18:14:00,17.1,4.5,29.82,WNW,302,10.0,24.0,57,0.00,,,0.00,0.0,meteohub,2013-02-17 23:14:00,
2013-02-17 18:19:00,17.1,4.8,29.83,North,5,6.0,22.0,58,0.00,,,0.00,0.0,meteohub,2013-02-17 23:19:00,
2013-02-17 18:24:00,16.9,4.3,29.83,WNW,300,4.0,22.0,57,0.00,,,0.00,0.0,meteohub,2013-02-17 23:24:00,
2013-02-17 18:30:00,16.7,4.1,29.84,NNW,343,0.0,22.0,57,0.00,,,0.00,0.0,meteohub,2013-02-17 23:30:00,
2013-02-17 18:36:00,16.5,4.3,29.84,NW,325,10.0,30.0,58,0.00,,,0.00,0.0,meteohub,2013-02-17 23:36:00,
2013-02-17 18:41:00,16.3,4.1,29.85,SW,214,9.0,30.0,58,0.00,,,0.00,0.0,meteohub,2013-02-17 23:41:00,
2013-02-17 18:46:00,16.2,3.9,29.85,West,263,0.0,24.0,58,0.00,,,0.00,0.0,meteohub,2013-02-17 23:46:00,
2013-02-17 18:52:00,16.2,4.3,29.85,NW,315,15.0,24.0,59,0.00,,,0.00,0.0,meteohub,2013-02-17 23:52:00,
2013-02-17 18:57:00,16.2,3.9,29.85,NW,309,11.0,24.0,58,0.00,,,0.00,0.0,meteohub,2013-02-17 23:57:00,
2013-02-17 19:02:00,16.0,4.1,29.86,NNE,15,7.0,24.0,59,0.00,,,0.00,0.0,meteohub,2013-02-18 00:02:00,
2013-02-17 19:07:00,16.0,4.5,29.86,West,259,7.0,23.0,60,0.00,,,0.00,0.0,meteohub,2013-02-18 00:07:00,
2013-02-17 19:12:00,15.8,4.5,29.86,West,271,3.0,23.0,60,0.00,,,0.00,0.0,meteohub,2013-02-18 00:12:00,
2013-02-17 19:17:00,15.8,4.5,29.86,SW,225,11.0,19.0,60,0.00,,,0.00,0.0,meteohub,2013-02-18 00:17:00,
2013-02-17 19:22:00,15.6,4.3,29.86,NW,315,11.0,19.0,60,0.00,,,0.00,0.0,meteohub,2013-02-18 00:22:00,
2013-02-17 19:27:00,15.6,3.9,29.86,NW,312,16.0,21.0,59,0.00,,,0.00,0.0,meteohub,2013-02-18 00:27:00,
2013-02-17 19:32:00,15.4,3.7,29.86,NNW,335,8.0,21.0,59,0.00,,,0.00,0.0,meteohub,2013-02-18 00:32:00,
2013-02-17 19:37:00,15.4,3.4,29.87,WNW,288,6.0,27.0,58,0.00,,,0.00,0.0,meteohub,2013-02-18 00:37:00,
2013-02-17 19:42:00,15.4,3.7,29.87,NW,305,9.0,27.0,59,0.00,,,0.00,0.0,meteohub,2013-02-18 00:42:00,
2013-02-17 19:47:00,15.3,3.2,29.87,NW,318,5.0,27.0,58,0.00,,,0.00,0.0,meteohub,2013-02-18 00:47:00,
2013-02-17 19:52:00,15.3,3.2,29.87,West,274,14.0,27.0,58,0.00,,,0.00,0.0,meteohub,2013-02-18 00:52:00,
2013-02-17 19:57:00,15.1,3.4,29.87,NNW,345,5.0,25.0,59,0.00,,,0.00,0.0,meteohub,2013-02-18 00:57:00,
2013-02-17 20:02:00,15.1,3.4,29.88,NW,309,10.0,25.0,59,0.00,,,0.00,0.0,meteohub,2013-02-18 01:02:00,
2013-02-17 20:07:00,14.9,3.2,29.87,WNW,302,7.0,23.0,59,0.00,,,0.00,0.0,meteohub,2013-02-18 01:07:00,
2013-02-17 20:12:00,14.9,3.2,29.87,WSW,250,6.0,23.0,59,0.00,,,0.00,0.0,meteohub,2013-02-18 01:12:00,
2013-02-17 20:17:00,14.7,3.4,29.88,NNW,332,7.0,23.0,60,0.00,,,0.00,0.0,meteohub,2013-02-18 01:17:00,
2013-02-17 20:23:00,14.7,3.4,29.88,North,355,6.0,23.0,60,0.00,,,0.00,0.0,meteohub,2013-02-18 01:23:00,
2013-02-17 20:28:00,14.7,3.4,29.88,North,351,5.0,23.0,60,0.00,,,0.00,0.0,meteohub,2013-02-18 01:28:00,
2013-02-17 20:33:00,14.5,3.2,29.88,SSW,196,7.0,23.0,60,0.00,,,0.00,0.0,meteohub,2013-02-18 01:33:00,
2013-02-17 20:39:00,14.5,3.2,29.89,WNW,300,6.0,23.0,60,0.00,,,0.00,0.0,meteohub,2013-02-18 01:39:00,
2013-02-17 20:44:00,14.5,3.2,29.89,WNW,296,1.0,21.0,60,0.00,,,0.00,0.0,meteohub,2013-02-18 01:44:00,
2013-02-17 20:50:00,14.5,3.6,29.89,NNW,333,1.0,21.0,61,0.00,,,0.00,0.0,meteohub,2013-02-18 01:50:00,
2013-02-17 20:55:00,14.5,3.6,29.89,WNW,302,3.0,21.0,61,0.00,,,0.00,0.0,meteohub,2013-02-18 01:55:00,
2013-02-17 21:00:00,14.5,3.6,29.89,WNW,300,9.0,21.0,61,0.00,,,0.00,0.0,meteohub,2013-02-18 02:00:00,
2013-02-17 21:05:00,14.5,3.6,29.89,WNW,298,12.0,21.0,61,0.00,,,0.00,0.0,meteohub,2013-02-18 02:05:00,
2013-02-17 21:11:00,14.5,3.9,29.90,NW,306,4.0,20.0,62,0.00,,,0.00,0.0,meteohub,2013-02-18 02:11:00,
2013-02-17 21:16:00,14.5,3.6,29.89,NW,305,3.0,20.0,61,0.00,,,0.00,0.0,meteohub,2013-02-18 02:16:00,
2013-02-17 21:21:00,14.5,3.6,29.90,NW,326,6.0,20.0,61,0.00,,,0.00,0.0,meteohub,2013-02-18 02:21:00,
2013-02-17 21:26:00,14.5,3.2,29.89,North,5,7.0,28.0,60,0.00,,,0.00,0.0,meteohub,2013-02-18 02:26:00,
2013-02-17 21:32:00,14.5,3.6,29.90,WNW,302,6.0,28.0,61,0.00,,,0.00,0.0,meteohub,2013-02-18 02:32:00,
2013-02-17 21:37:00,14.4,3.4,29.91,WSW,243,13.0,24.0,61,0.00,,,0.00,0.0,meteohub,2013-02-18 02:37:00,
2013-02-17 21:42:00,14.4,3.4,29.91,WNW,300,14.0,24.0,61,0.00,,,0.00,0.0,meteohub,2013-02-18 02:42:00,
2013-02-17 21:47:00,14.4,3.4,29.91,WNW,284,7.0,24.0,61,0.00,,,0.00,0.0,meteohub,2013-02-18 02:47:00,
2013-02-17 21:52:00,14.4,3.0,29.91,NNW,335,7.0,24.0,60,0.00,,,0.00,0.0,meteohub,2013-02-18 02:52:00,
2013-02-17 21:57:00,14.4,3.0,29.91,North,355,4.0,19.0,60,0.00,,,0.00,0.0,meteohub,2013-02-18 02:57:00,
2013-02-17 22:02:00,14.4,3.4,29.91,NW,306,12.0,19.0,61,0.00,,,0.00,0.0,meteohub,2013-02-18 03:02:00,
2013-02-17 22:07:00,14.2,2.8,29.91,NNW,330,10.0,21.0,60,0.00,,,0.00,0.0,meteohub,2013-02-18 03:07:00,
2013-02-17 22:12:00,14.2,2.8,29.91,NNW,331,7.0,21.0,60,0.00,,,0.00,0.0,meteohub,2013-02-18 03:12:00,
2013-02-17 22:17:00,14.2,2.8,29.91,WSW,257,4.0,21.0,60,0.00,,,0.00,0.0,meteohub,2013-02-18 03:17:00,
2013-02-17 22:22:00,14.2,2.8,29.92,WNW,286,11.0,21.0,60,0.00,,,0.00,0.0,meteohub,2013-02-18 03:22:00,
2013-02-17 22:27:00,14.2,2.5,29.91,WNW,290,6.0,28.0,59,0.00,,,0.00,0.0,meteohub,2013-02-18 03:27:00,
2013-02-17 22:32:00,14.2,2.5,29.92,WNW,290,15.0,28.0,59,0.00,,,0.00,0.0,meteohub,2013-02-18 03:32:00,
2013-02-17 22:37:00,14.2,2.5,29.92,NW,305,10.0,28.0,59,0.00,,,0.00,0.0,meteohub,2013-02-18 03:37:00,
2013-02-17 22:42:00,14.2,2.5,29.93,NE,38,2.0,28.0,59,0.00,,,0.00,0.0,meteohub,2013-02-18 03:42:00,
2013-02-17 22:47:00,14.2,2.5,29.92,WSW,255,3.0,21.0,59,0.00,,,0.00,0.0,meteohub,2013-02-18 03:47:00,
2013-02-17 22:52:00,14.2,2.5,29.93,NNW,338,5.0,21.0,59,0.00,,,0.00,0.0,meteohub,2013-02-18 03:52:00,
2013-02-17 22:57:00,14.2,2.1,29.93,West,269,2.0,20.0,58,0.00,,,0.00,0.0,meteohub,2013-02-18 03:57:00,
2013-02-17 23:03:00,14.0,2.3,29.93,NNW,347,5.0,20.0,59,0.00,,,0.00,0.0,meteohub,2013-02-18 04:03:00,
2013-02-17 23:08:00,14.0,2.3,29.94,NW,309,6.0,20.0,59,0.00,,,0.00,0.0,meteohub,2013-02-18 04:08:00,
2013-02-17 23:13:00,14.0,2.3,29.94,NW,323,5.0,20.0,59,0.00,,,0.00,0.0,meteohub,2013-02-18 04:13:00,
2013-02-17 23:19:00,13.8,1.8,29.94,NW,307,9.0,13.0,58,0.00,,,0.00,0.0,meteohub,2013-02-18 04:19:00,
2013-02-17 23:24:00,13.8,1.8,29.95,NW,304,4.0,13.0,58,0.00,,,0.00,0.0,meteohub,2013-02-18 04:24:00,
2013-02-17 23:29:00,13.8,1.4,29.95,WNW,301,4.0,19.0,57,0.00,,,0.00,0.0,meteohub,2013-02-18 04:29:00,
2013-02-17 23:34:00,13.8,1.8,29.95,WNW,289,7.0,19.0,58,0.00,,,0.00,0.0,meteohub,2013-02-18 04:34:00,
2013-02-17 23:39:00,13.8,1.8,29.96,ESE,109,9.0,19.0,58,0.00,,,0.00,0.0,meteohub,2013-02-18 04:39:00,
2013-02-17 23:45:00,13.6,1.2,29.96,WSW,244,12.0,21.0,57,0.00,,,0.00,0.0,meteohub,2013-02-18 04:45:00,
2013-02-17 23:50:00,13.6,1.6,29.96,WNW,291,2.0,21.0,58,0.00,,,0.00,0.0,meteohub,2013-02-18 04:50:00,
2013-02-17 23:56:00,13.6,1.6,29.96,NNW,333,9.0,17.0,58,0.00,,,0.00,0.0,meteohub,2013-02-18 04:56:00,